User: anonymous   Login
Location: Dover
(39.1580°N, 75.5250°W)
Time: 05:45:28
(UTC-04:00)
Language:

Cosmos 1437 Rocket - Orbit

View from above orbital plane
View from above orbital plane
View from above satellite
View from above satellite

Ground track
Ground track

The orbit data is extracted from the following two-line orbital elements,

1 13771U 83003B   17114.92962044 +.00001582 +00000-0 +94595-4 0  9995
2 13771 081.1435 064.0937 0043006 181.4849 178.6256 15.09704628865758
Epoch (UTC): 24 April 2017 22:18:39
Eccentricity: 0.0043006
inclination: 81.1435°
perigee height: 507 km
apogee height: 567 km
right ascension of ascending node: 64.0937°
argument of perigee: 181.4849°
revolutions per day: 15.09704628
mean anomaly at epoch: 178.6256°
orbit number at epoch: 86575

The dashed part of the orbit path shows where the satellite is in the earth's shadow,  

DLR